Location: Unspecified
(52.4292°N, 19.3359°E)
Time: 15:26:41
(UTC+01:00)

A-11 Canister half - Pass Details

Date: 18 October 2025
Orbit: 1526 x 1682 km, 47.3° (Epoch: 13 November)

Event Time Altitude Azimuth Distance (km) Brightness Sun altitude
Exits shadow 04:16:29 45° 218° (SW) 1,996 9.1 -27.3°
Maximum altitude 04:19:16 60° 166° (SSE) 1,718 9.1 -26.9°
Drops below altitude 10° 04:28:20 10° 90° (E) 3,708 11.9 -25.6°
Sets 04:31:26 0° 87° (E) 4,702 12.8 -25.2°
